This demonstration page uses our WeatherBlox Daily Observations layout. Learn more.

Left ArrowRight Arrow

38.80484, -77.04692

Hourly Observations for April 15, 2018

Temp ( °F °C ) Dew Point ( °F °C ) Humidity (%) Winds ( mph kmh ) Pressure ( in mb ) Visibility ( mi km ) Precip ( " mm )
12:52 am 00:52 Partly Cloudy 68 20 55 12.8 63 63 S 12 19 29.92 1013 10 16 0.00 0.00
1:52 am 01:52 Partly Cloudy 67 19.4 55 12.8 66 66 S 9 15 29.92 1013 10 16 0.00 0.00
2:52 am 02:52 Mostly Clear 66 18.9 55 12.8 68 68 S 12 19 29.93 1014 10 16 0.00 0.00
3:52 am 03:52 Mostly Clear 65 18.3 56 13.3 73 73 S 10 17 29.95 1014 10 16 0.00 0.00
4:52 am 04:52 Mostly Clear 65 18.3 58 14.4 78 78 S 10 17 29.97 1015 10 16 0.00 0.00
5:52 am 05:52 Partly Cloudy 66 18.9 59 15 78 78 SE 7 11 29.99 1016 10 16 0.00 0.00
6:28 am 06:28 Mostly Cloudy 61 16.1 54 12.2 78 78 NE 15 24 30.00 1016 10 16 0.00 0.00
6:52 am 06:52 Cloudy 59 15 52 11.1 78 78 NE 15 24 30.01 1016 10 16 0.00 0.00
7:52 am 07:52 Cloudy 59 15 52 11.1 78 78 NNE 9 15 30.04 1017 10 16 0.00 0.00
8:52 am 08:52 Cloudy 60 15.6 53 11.7 78 78 NE 14 22 30.04 1017 10 16 0.00 0.00
9:09 am 09:09 Cloudy 60 15.6 53 11.7 78 78 NE 14 22 30.06 1018 10 16 0.00 0.00
9:52 am 09:52 Cloudy 59 15 52 11.1 78 78 NE 16 26 30.06 1018 9 14 0.00 0.00
10:18 am 10:18 Cloudy 57 13.9 50 10 78 78 ENE 20 31 30.06 1018 7 11 0.00 0.00
10:52 am 10:52 Cloudy 54 12.2 49 9.4 83 83 ENE 21 33 30.07 1018 7 11 0.00 0.00
11:16 am 11:16 Cloudy with Light Rain 53 11.7 49 9.4 86 86 ENE 17 28 30.09 1019 3 4 0.02 0.51
11:35 am 11:35 Cloudy with Light Rain 53 11.7 49 9.4 86 86 ENE 16 26 30.06 1018 6 10 0.02 0.51
11:42 am 11:42 Cloudy with Light Rain 53 11.7 49 9.4 86 86 ENE 20 31 30.06 1018 4 6 0.02 0.51
11:52 am 11:52 Cloudy 53 11.7 49 9.4 86 86 ENE 18 30 30.06 1018 10 16 0.02 0.51
12:31 pm 12:31 Cloudy 53 11.7 48 8.9 83 83 ENE 18 30 30.06 1018 10 16 0.00 0.00
12:52 pm 12:52 Cloudy 52 11.1 48 8.9 86 86 ENE 18 30 30.05 1018 10 16 0.00 0.00
1:52 pm 13:52 Cloudy with Light Rain 51 10.6 48 8.9 89 89 ENE 14 22 30.03 1017 7 11 0.01 0.25
2:21 pm 14:21 Cloudy with Light Rain 51 10.6 48 8.9 89 89 ENE 17 28 30.03 1017 9 14 0.00 0.03
2:45 pm 14:45 Cloudy with Light Rain 52 11.1 48 8.9 86 86 ENE 15 24 30.00 1016 10 16 0.00 0.03
2:52 pm 14:52 Cloudy with Light Rain 52 11.1 48 8.9 86 86 ENE 17 28 30.01 1016 10 16 0.00 0.03
3:52 pm 15:52 Cloudy 52 11.1 47 8.3 83 83 ENE 21 33 29.98 1015 9 14 0.00 0.03
4:52 pm 16:52 Cloudy with Light Rain 51 10.6 46 7.8 83 83 ENE 22 35 29.97 1015 10 16 0.00 0.03
5:22 pm 17:22 Cloudy with Light Rain 51 10.6 46 7.8 83 83 ENE 18 30 29.97 1015 4 6 0.02 0.51
5:45 pm 17:45 Cloudy with Light Rain 50 10 46 7.8 86 86 ENE 15 24 29.97 1015 2 3 0.03 0.76
5:50 pm 17:50 Cloudy with Light Rain 50 10 46 8 88 88 ENE 15 24 29.97 1015 2 3 0.03 0.76
5:52 pm 17:52 Cloudy with Light Rain 50 10 46 7.8 86 86 ENE 15 24 29.96 1015 2 3 0.04 1.02
5:58 pm 17:58 Cloudy with Light Rain 50 10 46 7.8 86 86 ENE 16 26 29.97 1015 4 6 0.00 0.03
6:02 pm 18:02 Cloudy with Light Rain 50 10 46 7.8 86 86 ENE 18 30 29.94 1014 8 13 0.00 0.03
6:52 pm 18:52 Cloudy with Light Rain 49 9.4 45 7.2 86 86 ENE 22 35 29.93 1014 10 16 0.00 0.03
7:01 pm 19:01 Cloudy with Light Rain 49 9.4 44 6.7 83 83 ENE 14 22 29.94 1014 6 10 0.00 0.03
7:10 pm 19:10 Cloudy with Rain 48 8.9 44 6.7 86 86 ENE 22 35 29.91 1013 3 4 0.01 0.25
7:24 pm 19:24 Cloudy with Light Rain 48 8.9 45 7.2 89 89 NE 17 28 29.91 1013 2 3 0.03 0.76
7:27 pm 19:27 Cloudy with Light Rain 48 8.9 45 7.2 89 89 ENE 17 28 29.91 1013 3 5 0.03 0.76
7:52 pm 19:52 Cloudy with Mist and Fog 48 8.9 44 6.7 86 86 ENE 15 24 29.92 1013 5 8 0.04 1.02
7:56 pm 19:56 Cloudy with Drizzle 48 8.9 45 7.2 89 89 ENE 20 31 29.91 1013 5 8 0.00 0.03
8:52 pm 20:52 Cloudy 48 8.9 44 6.7 86 86 ENE 17 28 29.89 1012 7 11 0.00 0.03
9:16 pm 21:16 Cloudy with Drizzle 48 8.9 44 6.7 86 86 ENE 18 30 29.88 1012 5 8 0.00 0.03
9:52 pm 21:52 Cloudy with Drizzle 48 8.9 44 6.7 86 86 ENE 22 35 29.85 1011 5 8 0.00 0.03
10:52 pm 22:52 Cloudy with Drizzle 49 9.4 46 7.8 90 90 ENE 17 28 29.78 1009 6 10 0.00 0.03
11:52 pm 23:52 Cloudy with Light Rain 50 10 47 8.3 89 89 NE 21 33 29.73 1007 4 6 0.00 0.03

Powered by AerisWeather